sat.trackr.live / text

‹ back to catalog

STARLINK-33703

NORAD 63418 · 2025-065V

PAYLOAD ACTIVE UNKNOWN

§ Identity

Operator
Country
US
Launch date
2025-03-31
Launch site
AFETR
Launch vehicle
Mass (kg)
RCS (m²)

Purposes: comms

External: N2YO · Heavens-Above · Gunter

§ Orbital elements

Epoch: 2026-09-20T21:51:25.216992Z

Period
94.27 min
Inclination
43.0002°
Eccentricity
0.0001195
Mean motion
15.27586822 rev/d
Perigee alt
482.2 km
Apogee alt
483.8 km
Semi-major
6,861.2 km
B*
5.0343e-4
RAAN
84.7593°
Arg perigee
277.5392°
Mean anomaly
82.5324°
Rev number
8,269

§ Raw data

STARLINK-337031 63418U 25065V   26263.91070853  .00013620  00000+0  50343-3 0  99912 63418  43.0002  84.7593 0001195 277.5392  82.5324 15.27586822 82695

JSON: /api/v1/satellites/63418 · /tle

For live sub-satellite position, see the globe view (requires WebGL).

§ Visibility from observer

Set your observer location to see the next 7 days of passes ≥ 10°. The values pass through the URL so the page stays shareable.

No JS? Fill the form by hand. The geolocation button needs JavaScript.